Time,TemperatureF,DewpointF,PressureIn,WindDirection,WindDirectionDegrees,WindSpeedMPH,WindSpeedGustMPH,Humidity,HourlyPrecipIn,Conditions,Clouds,dailyrainin,SoftwareType,DateUTC
2013-08-11 00:35:00,75.7,71.2,29.91,North,0,0.0,0.0,86,0.00,,,0.00,WUHU216HW,2013-08-11 04:35:00,
2013-08-11 00:36:00,75.7,71.2,29.91,North,0,0.0,0.0,86,0.00,,,0.00,WUHU216HW,2013-08-11 04:36:00,
2013-08-11 00:50:00,75.7,71.2,29.91,North,0,0.0,0.0,86,0.00,,,0.00,WUHU216HW,2013-08-11 04:50:00,
2013-08-11 10:02:00,77.9,73.7,29.94,WNW,293,0.0,0.0,87,0.00,,,0.00,WUHU216HW,2013-08-11 14:02:00,
2013-08-11 10:08:00,78.4,74.3,29.94,SW,225,0.0,0.0,87,0.00,,,0.00,WUHU216HW,2013-08-11 14:08:00,
2013-08-11 10:13:00,78.4,73.9,29.94,West,270,0.0,0.0,86,0.00,,,0.00,WUHU216HW,2013-08-11 14:13:00,
2013-08-11 10:18:00,78.6,74.1,29.94,NNW,338,0.0,0.0,86,0.00,,,0.00,WUHU216HW,2013-08-11 14:18:00,
2013-08-11 10:24:00,78.9,74.1,29.94,SSE,158,0.0,0.0,85,0.00,,,0.00,WUHU216HW,2013-08-11 14:24:00,
2013-08-11 10:29:00,79.3,74.2,29.94,NW,315,0.0,0.0,85,0.00,,,0.00,WUHU216HW,2013-08-11 14:29:00,
2013-08-11 10:34:00,79.3,74.0,29.94,NW,315,0.0,0.0,84,0.00,,,0.00,WUHU216HW,2013-08-11 14:34:00,
2013-08-11 10:39:00,79.5,74.2,29.94,North,0,0.0,0.0,84,0.00,,,0.00,WUHU216HW,2013-08-11 14:39:00,
2013-08-11 10:45:00,79.8,74.0,29.94,NW,315,0.0,0.0,83,0.00,,,0.00,WUHU216HW,2013-08-11 14:45:00,
2013-08-11 10:50:00,80.2,74.6,29.94,West,270,0.0,0.0,83,0.00,,,0.00,WUHU216HW,2013-08-11 14:50:00,
2013-08-11 10:55:00,80.2,74.6,29.94,ESE,113,0.0,0.0,83,0.00,,,0.00,WUHU216HW,2013-08-11 14:55:00,
2013-08-11 11:00:00,80.6,74.6,29.94,WNW,293,0.0,0.0,82,0.00,,,0.00,WUHU216HW,2013-08-11 15:00:00,
2013-08-11 11:05:00,80.7,74.4,29.94,WSW,248,0.0,0.0,81,0.00,,,0.00,WUHU216HW,2013-08-11 15:05:00,
2013-08-11 11:10:00,81.1,74.8,29.94,NE,45,0.0,0.0,81,0.00,,,0.00,WUHU216HW,2013-08-11 15:10:00,
2013-08-11 11:15:00,81.3,74.6,29.94,SSW,203,0.0,0.0,81,0.00,,,0.00,WUHU216HW,2013-08-11 15:15:00,
2013-08-11 11:21:00,81.5,74.8,29.94,NE,45,0.0,0.0,80,0.00,,,0.00,WUHU216HW,2013-08-11 15:21:00,
2013-08-11 11:26:00,81.6,75.0,29.93,WNW,293,0.0,0.0,80,0.00,,,0.00,WUHU216HW,2013-08-11 15:26:00,
2013-08-11 11:31:00,81.6,75.2,29.93,NW,315,0.0,0.0,80,0.00,,,0.00,WUHU216HW,2013-08-11 15:31:00,
2013-08-11 11:36:00,82.0,74.9,29.94,NNW,338,0.0,0.0,79,0.00,,,0.00,WUHU216HW,2013-08-11 15:36:00,
2013-08-11 11:41:00,82.2,75.1,29.93,NW,315,0.0,0.0,79,0.00,,,0.00,WUHU216HW,2013-08-11 15:41:00,
2013-08-11 11:46:00,82.4,75.3,29.93,NW,315,0.0,0.0,79,0.00,,,0.00,WUHU216HW,2013-08-11 15:46:00,
2013-08-11 11:52:00,82.7,75.6,29.93,SW,225,0.0,0.0,79,0.00,,,0.00,WUHU216HW,2013-08-11 15:52:00,
2013-08-11 11:57:00,82.9,75.8,29.92,WSW,248,0.0,0.0,79,0.00,,,0.00,WUHU216HW,2013-08-11 15:57:00,
2013-08-11 12:02:00,83.1,75.5,29.92,South,180,0.0,0.0,78,0.00,,,0.00,WUHU216HW,2013-08-11 16:02:00,
2013-08-11 12:07:00,83.3,75.3,29.92,North,0,0.0,0.0,78,0.00,,,0.00,WUHU216HW,2013-08-11 16:07:00,
2013-08-11 12:12:00,83.4,75.4,29.92,NW,315,0.0,0.0,77,0.00,,,0.00,WUHU216HW,2013-08-11 16:12:00,
2013-08-11 12:17:00,83.8,75.8,29.92,SSW,203,0.0,0.0,77,0.00,,,0.00,WUHU216HW,2013-08-11 16:17:00,
2013-08-11 12:22:00,83.8,75.8,29.92,South,180,0.0,0.0,77,0.00,,,0.00,WUHU216HW,2013-08-11 16:22:00,
2013-08-11 12:27:00,84.3,76.3,29.91,WSW,248,0.0,0.0,77,0.00,,,0.00,WUHU216HW,2013-08-11 16:27:00,
2013-08-11 12:33:00,84.3,75.9,29.91,South,180,0.0,0.0,76,0.00,,,0.00,WUHU216HW,2013-08-11 16:33:00,
2013-08-11 12:38:00,84.5,75.7,29.91,WNW,293,0.0,0.0,75,0.00,,,0.00,WUHU216HW,2013-08-11 16:38:00,
2013-08-11 12:43:00,84.7,75.9,29.91,NNW,338,0.0,0.0,75,0.00,,,0.00,WUHU216HW,2013-08-11 16:43:00,
2013-08-11 12:48:00,84.9,75.7,29.91,West,270,0.0,0.0,74,0.00,,,0.00,WUHU216HW,2013-08-11 16:48:00,
2013-08-11 12:53:00,84.9,75.7,29.90,SW,225,0.0,0.0,74,0.00,,,0.00,WUHU216HW,2013-08-11 16:53:00,
2013-08-11 12:58:00,85.2,75.8,29.90,SW,225,0.0,0.0,74,0.00,,,0.00,WUHU216HW,2013-08-11 16:58:00,
2013-08-11 13:03:00,85.4,76.2,29.90,SW,225,0.0,0.0,74,0.00,,,0.00,WUHU216HW,2013-08-11 17:03:00,
2013-08-11 13:09:00,85.6,76.4,29.91,SSE,158,0.0,0.0,74,0.00,,,0.00,WUHU216HW,2013-08-11 17:09:00,
2013-08-11 13:14:00,85.8,76.2,29.90,NW,315,0.0,0.0,73,0.00,,,0.00,WUHU216HW,2013-08-11 17:14:00,
2013-08-11 13:19:00,85.8,76.2,29.90,NNW,338,0.0,0.0,73,0.00,,,0.00,WUHU216HW,2013-08-11 17:19:00,
2013-08-11 13:24:00,85.8,76.2,29.91,SSW,203,0.0,0.0,73,0.00,,,0.00,WUHU216HW,2013-08-11 17:24:00,
2013-08-11 13:29:00,85.8,75.8,29.91,WNW,293,0.0,0.0,72,0.00,,,0.00,WUHU216HW,2013-08-11 17:29:00,
2013-08-11 13:35:00,86.1,76.1,29.90,NE,45,0.0,0.0,72,0.00,,,0.00,WUHU216HW,2013-08-11 17:35:00,
2013-08-11 13:40:00,86.5,76.0,29.90,NNE,23,0.0,0.0,71,0.00,,,0.00,WUHU216HW,2013-08-11 17:40:00,
2013-08-11 13:45:00,86.5,75.6,29.90,NNE,23,0.0,0.0,70,0.00,,,0.00,WUHU216HW,2013-08-11 17:45:00,
2013-08-11 13:50:00,86.3,75.5,29.90,NNE,23,0.0,0.0,70,0.00,,,0.00,WUHU216HW,2013-08-11 17:50:00,
2013-08-11 13:55:00,86.3,75.7,29.90,SSW,203,0.0,0.0,71,0.00,,,0.00,WUHU216HW,2013-08-11 17:55:00,
2013-08-11 14:00:00,86.1,75.7,29.90,WNW,293,0.0,0.0,71,0.00,,,0.00,WUHU216HW,2013-08-11 18:00:00,
2013-08-11 14:05:00,86.3,75.9,29.89,NE,45,0.0,0.0,71,0.00,,,0.00,WUHU216HW,2013-08-11 18:05:00,
2013-08-11 14:10:00,86.3,75.9,29.89,South,180,0.0,0.0,71,0.00,,,0.00,WUHU216HW,2013-08-11 18:10:00,
2013-08-11 14:15:00,86.5,76.4,29.89,SSE,158,0.0,0.0,72,0.00,,,0.00,WUHU216HW,2013-08-11 18:15:00,
2013-08-11 14:21:00,86.9,76.0,29.89,North,0,0.0,0.0,70,0.00,,,0.00,WUHU216HW,2013-08-11 18:21:00,
2013-08-11 14:26:00,87.0,76.1,29.89,ESE,113,0.0,0.0,70,0.00,,,0.00,WUHU216HW,2013-08-11 18:26:00,
2013-08-11 14:31:00,87.6,76.1,29.88,West,270,0.0,0.0,69,0.00,,,0.00,WUHU216HW,2013-08-11 18:31:00,
2013-08-11 14:36:00,87.0,75.7,29.88,SSW,203,0.0,0.0,69,0.00,,,0.00,WUHU216HW,2013-08-11 18:36:00,
2013-08-11 14:41:00,87.0,76.1,29.87,SSW,203,0.0,0.0,70,0.00,,,0.00,WUHU216HW,2013-08-11 18:41:00,
2013-08-11 14:46:00,87.0,76.1,29.87,SSE,158,0.0,0.0,70,0.00,,,0.00,WUHU216HW,2013-08-11 18:46:00,
2013-08-11 14:51:00,87.4,76.0,29.87,South,180,0.0,0.0,69,0.00,,,0.00,WUHU216HW,2013-08-11 18:51:00,
2013-08-11 14:57:00,87.6,75.7,29.87,SW,225,0.0,0.0,68,0.00,,,0.00,WUHU216HW,2013-08-11 18:57:00,
2013-08-11 15:02:00,87.4,75.5,29.87,SSE,158,0.0,0.0,68,0.00,,,0.00,WUHU216HW,2013-08-11 19:02:00,
2013-08-11 15:07:00,87.0,76.1,29.87,SW,225,0.0,0.0,70,0.00,,,0.00,WUHU216HW,2013-08-11 19:07:00,
2013-08-11 15:12:00,87.0,76.1,29.87,SW,225,0.0,0.0,70,0.00,,,0.00,WUHU216HW,2013-08-11 19:12:00,
2013-08-11 15:17:00,87.0,76.1,29.87,SW,225,0.0,0.0,70,0.00,,,0.00,WUHU216HW,2013-08-11 19:17:00,
2013-08-11 15:23:00,86.7,76.0,29.87,SSW,203,0.0,0.0,70,0.00,,,0.00,WUHU216HW,2013-08-11 19:23:00,
2013-08-11 15:28:00,87.0,76.5,29.86,SSE,158,0.0,0.0,71,0.00,,,0.00,WUHU216HW,2013-08-11 19:28:00,
2013-08-11 15:33:00,87.4,76.4,29.86,WSW,248,0.0,0.0,70,0.00,,,0.00,WUHU216HW,2013-08-11 19:33:00,
2013-08-11 15:38:00,87.6,76.6,29.86,South,180,0.0,0.0,70,0.00,,,0.00,WUHU216HW,2013-08-11 19:38:00,
2013-08-11 15:43:00,88.1,76.7,29.87,SW,225,0.0,0.0,69,0.00,,,0.00,WUHU216HW,2013-08-11 19:43:00,
2013-08-11 15:48:00,88.5,76.1,29.86,SE,135,0.0,0.0,67,0.00,,,0.00,WUHU216HW,2013-08-11 19:48:00,
2013-08-11 15:54:00,88.7,76.8,29.86,SSW,203,0.0,0.0,68,0.00,,,0.00,WUHU216HW,2013-08-11 19:54:00,
2013-08-11 15:59:00,88.8,76.6,29.85,SSW,203,0.0,0.0,67,0.00,,,0.00,WUHU216HW,2013-08-11 19:59:00,
2013-08-11 16:04:00,89.2,76.8,29.85,WSW,248,0.0,0.0,67,0.00,,,0.00,WUHU216HW,2013-08-11 20:04:00,
2013-08-11 16:09:00,89.2,76.8,29.85,West,270,0.0,0.0,67,0.00,,,0.00,WUHU216HW,2013-08-11 20:09:00,
2013-08-11 16:15:00,89.2,77.3,29.85,ESE,113,0.0,0.0,68,0.00,,,0.00,WUHU216HW,2013-08-11 20:15:00,
2013-08-11 16:20:00,89.2,77.3,29.84,WSW,248,0.0,0.0,68,0.00,,,0.00,WUHU216HW,2013-08-11 20:20:00,
2013-08-11 16:25:00,89.2,76.8,29.84,SE,135,0.0,0.0,67,0.00,,,0.00,WUHU216HW,2013-08-11 20:25:00,
2013-08-11 16:30:00,89.4,76.5,29.85,WSW,248,0.0,0.0,66,0.00,,,0.00,WUHU216HW,2013-08-11 20:30:00,
2013-08-11 16:35:00,89.4,77.0,29.84,WSW,248,0.0,0.0,67,0.00,,,0.00,WUHU216HW,2013-08-11 20:35:00,
2013-08-11 16:40:00,89.6,76.7,29.84,NNW,338,0.0,0.0,66,0.00,,,0.00,WUHU216HW,2013-08-11 20:40:00,
2013-08-11 16:45:00,89.6,76.7,29.85,South,180,0.0,0.0,66,0.00,,,0.00,WUHU216HW,2013-08-11 20:45:00,
2013-08-11 16:50:00,89.4,76.1,29.85,SW,225,0.0,0.0,65,0.00,,,0.00,WUHU216HW,2013-08-11 20:50:00,
2013-08-11 16:55:00,89.4,75.6,29.85,SW,225,0.0,0.0,64,0.00,,,0.00,WUHU216HW,2013-08-11 20:55:00,
2013-08-11 17:00:00,89.2,75.0,29.85,WNW,293,0.0,0.0,63,0.00,,,0.00,WUHU216HW,2013-08-11 21:00:00,
2013-08-11 17:06:00,89.2,75.4,29.85,NW,315,0.0,0.0,64,0.00,,,0.00,WUHU216HW,2013-08-11 21:06:00,
2013-08-11 17:11:00,89.2,75.4,29.85,West,270,0.0,0.0,64,0.00,,,0.00,WUHU216HW,2013-08-11 21:11:00,
2013-08-11 17:17:00,89.2,75.4,29.85,SSE,158,0.0,0.0,64,0.00,,,0.00,WUHU216HW,2013-08-11 21:17:00,
2013-08-11 17:22:00,89.2,75.4,29.85,SW,225,0.0,0.0,64,0.00,,,0.00,WUHU216HW,2013-08-11 21:22:00,
2013-08-11 17:28:00,88.7,74.9,29.85,West,270,0.0,0.0,64,0.00,,,0.00,WUHU216HW,2013-08-11 21:28:00,
2013-08-11 17:33:00,88.5,75.2,29.85,NW,315,0.0,0.0,65,0.00,,,0.00,WUHU216HW,2013-08-11 21:33:00,
2013-08-11 17:38:00,88.3,75.0,29.85,WSW,248,0.0,0.0,65,0.00,,,0.00,WUHU216HW,2013-08-11 21:38:00,
2013-08-11 17:43:00,88.1,74.4,29.85,NW,315,0.0,0.0,64,0.00,,,0.00,WUHU216HW,2013-08-11 21:43:00,
2013-08-11 17:48:00,87.9,74.7,29.85,WNW,293,0.0,0.0,65,0.00,,,0.00,WUHU216HW,2013-08-11 21:48:00,
2013-08-11 17:53:00,87.8,74.5,29.85,East,90,0.0,0.0,65,0.00,,,0.00,WUHU216HW,2013-08-11 21:53:00,
2013-08-11 17:58:00,87.6,74.8,29.85,South,180,0.0,0.0,66,0.00,,,0.00,WUHU216HW,2013-08-11 21:58:00,
2013-08-11 18:04:00,87.6,74.8,29.85,SW,225,0.0,0.0,66,0.00,,,0.00,WUHU216HW,2013-08-11 22:04:00,
2013-08-11 18:09:00,87.2,74.9,29.85,SE,135,0.0,0.0,67,0.00,,,0.00,WUHU216HW,2013-08-11 22:09:00,
2013-08-11 18:14:00,86.7,74.9,29.85,West,270,0.0,0.0,68,0.00,,,0.00,WUHU216HW,2013-08-11 22:14:00,
2013-08-11 18:19:00,86.5,74.7,29.85,SW,225,0.0,0.0,68,0.00,,,0.00,WUHU216HW,2013-08-11 22:19:00,
2013-08-11 18:24:00,86.1,74.8,29.85,WSW,248,0.0,0.0,69,0.00,,,0.00,WUHU216HW,2013-08-11 22:24:00,
2013-08-11 18:29:00,85.8,75.0,29.85,WSW,248,0.0,0.0,70,0.00,,,0.00,WUHU216HW,2013-08-11 22:29:00,
2013-08-11 18:34:00,85.6,74.8,29.85,South,180,0.0,0.0,70,0.00,,,0.00,WUHU216HW,2013-08-11 22:34:00,
2013-08-11 18:39:00,85.2,75.0,29.85,West,270,0.0,0.0,71,0.00,,,0.00,WUHU216HW,2013-08-11 22:39:00,
2013-08-11 18:45:00,85.2,75.2,29.85,WSW,248,0.0,0.0,72,0.00,,,0.00,WUHU216HW,2013-08-11 22:45:00,
2013-08-11 18:50:00,85.2,75.2,29.85,SSW,203,0.0,0.0,72,0.00,,,0.00,WUHU216HW,2013-08-11 22:50:00,
2013-08-11 18:56:00,85.4,75.4,29.85,SE,135,0.0,0.0,72,0.00,,,0.00,WUHU216HW,2013-08-11 22:56:00,
2013-08-11 19:01:00,85.6,76.0,29.84,SSE,158,0.0,0.0,73,0.00,,,0.00,WUHU216HW,2013-08-11 23:01:00,
2013-08-11 19:06:00,85.8,75.8,29.84,West,270,0.0,0.0,72,0.00,,,0.00,WUHU216HW,2013-08-11 23:06:00,
2013-08-11 19:11:00,85.8,75.8,29.85,North,0,0.0,0.0,72,0.00,,,0.00,WUHU216HW,2013-08-11 23:11:00,
2013-08-11 19:16:00,85.6,75.6,29.85,WNW,293,0.0,0.0,72,0.00,,,0.00,WUHU216HW,2013-08-11 23:16:00,
2013-08-11 19:21:00,85.6,75.6,29.84,NW,315,0.0,0.0,72,0.00,,,0.00,WUHU216HW,2013-08-11 23:21:00,
2013-08-11 19:26:00,85.2,75.2,29.85,NNW,338,0.0,0.0,72,0.00,,,0.00,WUHU216HW,2013-08-11 23:26:00,
2013-08-11 19:31:00,84.9,75.3,29.85,West,270,0.0,0.0,73,0.00,,,0.00,WUHU216HW,2013-08-11 23:31:00,
2013-08-11 19:36:00,84.7,75.1,29.85,NW,315,0.0,0.0,73,0.00,,,0.00,WUHU216HW,2013-08-11 23:36:00,
2013-08-11 19:41:00,84.3,74.7,29.86,SW,225,0.0,0.0,73,0.00,,,0.00,WUHU216HW,2013-08-11 23:41:00,
2013-08-11 19:47:00,84.2,74.9,29.86,SW,225,0.0,0.0,74,0.00,,,0.00,WUHU216HW,2013-08-11 23:47:00,
2013-08-11 19:52:00,83.8,74.6,29.87,WNW,293,0.0,0.0,74,0.00,,,0.00,WUHU216HW,2013-08-11 23:52:00,
2013-08-11 19:57:00,83.6,74.4,29.87,SSW,203,0.0,0.0,74,0.00,,,0.00,WUHU216HW,2013-08-11 23:57:00,
2013-08-11 20:02:00,83.4,74.2,29.87,South,180,0.0,0.0,74,0.00,,,0.00,WUHU216HW,2013-08-12 00:02:00,
2013-08-11 20:07:00,83.1,74.5,29.87,South,180,0.0,0.0,75,0.00,,,0.00,WUHU216HW,2013-08-12 00:07:00,
2013-08-11 20:13:00,83.1,74.3,29.87,South,180,0.0,0.0,75,0.00,,,0.00,WUHU216HW,2013-08-12 00:13:00,
2013-08-11 20:18:00,82.7,74.0,29.87,WSW,248,0.0,0.0,75,0.00,,,0.00,WUHU216HW,2013-08-12 00:18:00,
2013-08-11 20:23:00,82.5,73.8,29.87,SW,225,0.0,0.0,75,0.00,,,0.00,WUHU216HW,2013-08-12 00:23:00,
2013-08-11 20:28:00,82.2,73.9,29.86,SW,225,0.0,0.0,76,0.00,,,0.00,WUHU216HW,2013-08-12 00:28:00,
2013-08-11 20:33:00,82.0,73.7,29.87,SW,225,0.0,0.0,76,0.00,,,0.00,WUHU216HW,2013-08-12 00:33:00,
2013-08-11 20:38:00,82.0,73.7,29.87,SW,225,0.0,0.0,76,0.00,,,0.00,WUHU216HW,2013-08-12 00:38:00,
2013-08-11 20:43:00,82.0,74.1,29.87,SW,225,0.0,0.0,77,0.00,,,0.00,WUHU216HW,2013-08-12 00:43:00,
2013-08-11 20:48:00,81.6,73.7,29.87,SW,225,0.0,0.0,77,0.00,,,0.00,WUHU216HW,2013-08-12 00:48:00,
2013-08-11 20:53:00,81.6,74.1,29.87,SW,225,0.0,0.0,78,0.00,,,0.00,WUHU216HW,2013-08-12 00:53:00,
2013-08-11 20:58:00,81.3,73.8,29.87,SW,225,0.0,0.0,78,0.00,,,0.00,WUHU216HW,2013-08-12 00:58:00,
2013-08-11 21:04:00,81.1,73.6,29.87,SW,225,0.0,0.0,78,0.00,,,0.00,WUHU216HW,2013-08-12 01:04:00,
2013-08-11 21:09:00,80.9,73.4,29.87,SW,225,0.0,0.0,78,0.00,,,0.00,WUHU216HW,2013-08-12 01:09:00,
2013-08-11 21:14:00,80.7,73.7,29.87,SW,225,0.0,0.0,79,0.00,,,0.00,WUHU216HW,2013-08-12 01:14:00,
2013-08-11 21:19:00,80.6,73.5,29.87,SW,225,0.0,0.0,79,0.00,,,0.00,WUHU216HW,2013-08-12 01:19:00,
2013-08-11 21:24:00,80.4,73.3,29.87,SW,225,0.0,0.0,79,0.00,,,0.00,WUHU216HW,2013-08-12 01:24:00,
2013-08-11 21:29:00,80.4,73.3,29.87,SW,225,0.0,0.0,79,0.00,,,0.00,WUHU216HW,2013-08-12 01:29:00,
2013-08-11 21:34:00,80.4,73.3,29.87,South,180,0.0,0.0,79,0.00,,,0.00,WUHU216HW,2013-08-12 01:34:00,
2013-08-11 21:40:00,80.2,73.1,29.87,SSW,203,0.0,0.0,79,0.00,,,0.00,WUHU216HW,2013-08-12 01:40:00,
2013-08-11 21:45:00,80.2,73.1,29.88,SSW,203,0.0,0.0,79,0.00,,,0.00,WUHU216HW,2013-08-12 01:45:00,
2013-08-11 21:50:00,80.2,73.5,29.88,SSW,203,0.0,0.0,80,0.00,,,0.00,WUHU216HW,2013-08-12 01:50:00,
2013-08-11 21:55:00,79.8,72.8,29.88,SSW,203,0.0,0.0,79,0.00,,,0.00,WUHU216HW,2013-08-12 01:55:00,
2013-08-11 22:00:00,79.8,72.8,29.88,SSW,203,0.0,0.0,79,0.00,,,0.00,WUHU216HW,2013-08-12 02:00:00,
2013-08-11 22:05:00,79.8,72.6,29.88,SSW,203,0.0,0.0,79,0.00,,,0.00,WUHU216HW,2013-08-12 02:05:00,
2013-08-11 22:10:00,79.7,73.0,29.88,SSW,203,0.0,0.0,80,0.00,,,0.00,WUHU216HW,2013-08-12 02:10:00,
2013-08-11 22:16:00,79.5,72.8,29.88,SSW,203,0.0,0.0,80,0.00,,,0.00,WUHU216HW,2013-08-12 02:16:00,
2013-08-11 22:21:00,79.3,72.6,29.88,SSW,203,0.0,0.0,80,0.00,,,0.00,WUHU216HW,2013-08-12 02:21:00,
2013-08-11 22:26:00,79.3,72.6,29.89,SSW,203,0.0,0.0,80,0.00,,,0.00,WUHU216HW,2013-08-12 02:26:00,
2013-08-11 22:31:00,79.1,72.8,29.89,SSW,203,0.0,0.0,81,0.00,,,0.00,WUHU216HW,2013-08-12 02:31:00,
2013-08-11 22:36:00,79.1,72.8,29.89,SSW,203,0.0,0.0,81,0.00,,,0.00,WUHU216HW,2013-08-12 02:36:00,
2013-08-11 22:41:00,79.1,72.8,29.89,SSW,203,0.0,0.0,81,0.00,,,0.00,WUHU216HW,2013-08-12 02:41:00,
2013-08-11 22:46:00,79.1,72.8,29.89,SSW,203,0.0,0.0,81,0.00,,,0.00,WUHU216HW,2013-08-12 02:46:00,
2013-08-11 22:52:00,78.9,72.6,29.89,SSW,203,0.0,0.0,81,0.00,,,0.00,WUHU216HW,2013-08-12 02:52:00,
2013-08-11 22:57:00,78.9,72.6,29.89,SSW,203,0.0,0.0,81,0.00,,,0.00,WUHU216HW,2013-08-12 02:57:00,
2013-08-11 23:02:00,78.8,72.8,29.89,SSW,203,0.0,0.0,82,0.00,,,0.00,WUHU216HW,2013-08-12 03:02:00,